Home > Weather > Calgary > Past weeks

Flag for Canada Past Weather in Calgary, Alberta, Canada — Yesterday and Last 2 Weeks

Now
66 °F

Broken clouds.


Feels Like: 66 °F
Forecast: 56 / 77 °F
Wind: 20 mph from North

Location: Calgary International

Current Time: Jul 27, 2016 at 10:53:48 PM

Latest Report: Jul 27, 2016 at 10:00 PM


Visibility: 15 mi

Pressure: 30.19 "Hg (26.66 "Hg at 1063m altitude)

Humidity: 60%

Dew Point: 52 °F

Location of CalgaryLocation

Past Weather in Calgary — Graph

°F

Calgary Temperature Yesterday

Maximum temperature yesterday: 77 °F (at 4:00 PM)
Minimum temperature yesterday: 57 °F (at 5:00 AM)
Average temperature yesterday: 67 °F

High & Low Weather Summary for the Past Weeks

 TemperatureHumidityPressure
High81 °F (Jul 21, 4:00 PM)100% (Jul 15, 5:45 AM)30.27 "Hg (Jul 15, 5:45 AM)
Low48 °F (Jul 15, 12:00 PM)17% (Jul 21, 7:00 PM)29.84 "Hg (Jul 22, 9:00 PM)
Average63 °F66%30.05 "Hg
* Reported Jul 12 9:00 PM — Jul 27 9:00 PM, Calgary, Weather by CustomWeather, © 2016

Note: Actual official high and low records may vary slightly from our data, if they occured in-between our weather recording intervals... More about our weather records

Advertising

Calgary Weather History for the Previous 24 Hours

Scroll right to see more
 ConditionsComfort  
Time TempWeatherWind HumidityBarometerVisibility
9:00 PM
Wed, Jul 27
73 °FPartly sunny.6 mph47%30.15 "Hg20 mi
8:00 PM73 °FBroken clouds.2 mph53%30.16 "Hg20 mi
7:00 PM72 °FThunderstorms. Broken clouds.6 mph57%30.16 "Hg20 mi
6:00 PM75 °FBroken clouds.12 mph47%30.17 "Hg30 mi
5:00 PM77 °FScattered clouds.9 mph42%30.16 "Hg30 mi
4:00 PM79 °FScattered clouds.10 mph37%30.16 "Hg30 mi
3:00 PM77 °FScattered clouds.6 mph44%30.16 "Hg30 mi
2:00 PM77 °FBroken clouds.8 mph42%30.17 "Hg30 mi
1:00 PM73 °FMild.6 mph50%30.19 "Hg30 mi
12:00 PM72 °FPartly sunny.No wind57%30.19 "Hg15 mi
11:00 AM70 °FPartly sunny.2 mph69%30.19 "Hg15 mi
10:00 AM70 °FPartly sunny.3 mph57%30.18 "Hg15 mi
9:00 AM68 °FBroken clouds.3 mph56%30.17 "Hg15 mi
8:00 AM63 °FBroken clouds.No wind73%30.17 "Hg20 mi
7:00 AM59 °FScattered clouds.No wind82%30.16 "Hg20 mi
6:00 AM59 °FPassing clouds.No wind82%30.15 "Hg30 mi
5:00 AM59 °FPassing clouds.2 mph82%30.13 "Hg11 mi
4:00 AM57 °FPassing clouds.5 mph88%30.12 "Hg15 mi
3:00 AM61 °FPassing clouds.6 mph83%30.12 "Hg15 mi
2:00 AM63 °FPassing clouds.8 mph77%30.11 "Hg15 mi
1:00 AM63 °FPassing clouds.5 mph77%30.11 "Hg15 mi
12:00 AM64 °FPassing clouds.5 mph78%30.11 "Hg15 mi
11:00 PM
Tue, Jul 26
64 °FPartly cloudy.2 mph73%30.11 "Hg15 mi
10:00 PM68 °FSprinkles. Broken clouds.7 mph64%30.10 "Hg15 mi
Weather by CustomWeather, © 2016

See weather overviewHow to use our weather pages